sat.trackr.live / text

‹ back to catalog

STARLINK-3358

NORAD 51109 · 2022-005F

PAYLOAD ACTIVE UNKNOWN

§ Identity

Operator
Country
US
Launch date
2022-01-19
Launch site
AFETR
Launch vehicle
Mass (kg)
RCS (m²)

Purposes: comms

External: N2YO · Heavens-Above · Gunter

§ Orbital elements

Epoch: 2026-05-25T04:04:06.578976Z

Period
95.44 min
Inclination
53.2126°
Eccentricity
0.0001101
Mean motion
15.08839554 rev/d
Perigee alt
539.0 km
Apogee alt
540.5 km
Semi-major
6,917.9 km
B*
3.5538e-5
RAAN
305.7399°
Arg perigee
104.3920°
Mean anomaly
255.7194°
Rev number
24,019

§ Raw data

STARLINK-33581 51109U 22005F   26145.16952059  .00000278  00000+0  35538-4 0  99942 51109  53.2126 305.7399 0001101 104.3920 255.7194 15.08839554240192

JSON: /api/v1/satellites/51109 · /tle

For live sub-satellite position, see the globe view (requires WebGL).

§ Visibility from observer

Set your observer location to see the next 7 days of passes ≥ 10°. The values pass through the URL so the page stays shareable.

No JS? Fill the form by hand. The geolocation button needs JavaScript.